DW9750 Weather Reports


time (UTC)temp
F
wind
direction
speed
knots
gust
knots
rain 1hr
in
rain 24hr
in
rain mn
in
humidity
%
barometer
mb
20260902064509 79 67 0.9 1.7 0.00 0.00 0.00 72 1013.1
20260902063008 79 74 0.0 2.6 0.00 0.00 0.00 71 1013.2
20260902061622 79 92 0.9 4.3 0.00 0.00 0.00 70 1013.0
20260902054556 80 99 1.7 3.5 0.00 0.00 0.00 68 1012.9
20260902053054 80 78 1.7 4.3 0.00 0.00 0.00 67 1012.9
20260902051602 81 93 2.6 4.3 0.00 0.00 0.00 66 1012.9
20260902050048 81 101 1.7 4.3 0.00 0.00 0.00 65 1012.7
20260902044605 81 96 1.7 3.5 0.00 0.00 0.00 64 1012.7
20260902043048 80 87 0.9 2.6 0.00 0.00 0.00 64 1012.7
20260902041550 80 80 0.0 0.0 0.00 0.00 0.00 64 1012.7
20260902040046 80 70 0.0 0.0 0.00 0.00 0.00 64 1012.7
20260902034545 80 70 0.0 1.7 0.00 0.00 0.00 62 1012.5
20260902033045 81 70 0.0 0.0 0.00 0.00 0.00 60 1012.4
20260902031556 82 70 0.0 0.0 0.00 0.00 0.00 59 1012.3
20260902030042 83 70 0.0 0.0 0.00 0.00 0.00 57 1012.0
20260902024551 83 70 0.0 0.0 0.00 0.00 0.00 56 1011.9
20260902023044 84 70 0.9 1.7 0.00 0.00 0.00 55 1011.5
20260902021546 85 70 0.0 0.0 0.00 0.00 0.00 55 1011.2
20260902020045 85 70 0.0 1.7 0.00 0.00 0.00 52 1011.1
20260902014541 86 91 0.0 1.7 0.00 0.00 0.00 50 1010.8
20260902013043 87 91 0.0 1.7 0.00 0.00 0.00 49 1010.7
20260902011543 88 89 0.9 2.6 0.00 0.00 0.00 48 1010.5
20260902010043 89 92 0.9 3.5 0.00 0.00 0.00 46 1010.4
20260902004541 91 85 0.9 2.6 0.00 0.00 0.00 44 1010.4
20260902003039 93 115 0.9 2.6 0.00 0.00 0.00 43 1010.5
20260902001539 94 97 0.9 4.3 0.00 0.00 0.00 41 1010.4
20260902000038 94 109 2.6 7.0 0.00 0.00 0.00 41 1010.5
20260901234536 95 92 4.3 7.8 0.00 0.00 0.00 40 1010.3
20260901233036 97 206 1.7 5.2 0.00 0.00 0.00 38 1010.3
20260901231543 97 90 1.7 6.1 0.00 0.00 0.00 37 1010.3
20260901230038 98 177 3.5 6.1 0.00 0.00 0.00 37 1010.2
20260901224536 97 175 1.7 4.3 0.00 0.00 0.00 38 1010.3
20260901223034 97 114 0.9 8.7 0.00 0.00 0.00 38 1010.3
20260901221534 98 303 0.0 3.5 0.00 0.00 0.00 36 1010.3
20260901220032 97 177 1.7 6.1 0.00 0.00 0.00 37 1010.3
20260901214536 99 9 2.6 6.1 0.00 0.00 0.00 36 1010.4
20260901213033 98 214 0.0 7.8 0.00 0.00 0.00 38 1010.6
20260901211526 99 265 1.7 7.8 0.00 0.00 0.00 37 1010.8
20260901210023 97 195 1.7 5.2 0.00 0.00 0.00 38 1011.1
20260901204522 98 183 2.6 7.0 0.00 0.00 0.00 37 1011.3
20260901203020 97 298 2.6 7.0 0.00 0.00 0.00 40 1011.5
20260901201517 97 82 3.5 6.1 0.00 0.00 0.00 38 1011.9
20260901200017 97 274 2.6 7.8 0.00 0.00 0.00 38 1011.9
20260901194511 96 184 3.5 7.0 0.00 0.00 0.00 39 1012.2
20260901193011 96 239 3.5 7.8 0.00 0.00 0.00 40 1012.3
20260901191513 96 251 2.6 5.2 0.00 0.00 0.00 40 1012.5
20260901190005 95 40 0.9 2.6 0.00 0.00 0.00 40 1012.7
20260901184503 95 91 1.7 4.3 0.00 0.00 0.00 43 1013.1
20260901183120 94 125 0.9 6.1 0.00 0.00 0.00 42 1013.3
20260901181558 93 161 1.7 6.1 0.00 0.00 0.00 43 1013.5
20260901180057 93 166 2.6 7.0 0.00 0.00 0.00 43 1013.8
20260901174554 93 131 1.7 6.1 0.00 0.00 0.00 42 1014.1
20260901173119 92 173 2.6 6.1 0.00 0.00 0.00 47 1014.1
20260901171555 91 120 1.7 6.1 0.00 0.00 0.00 48 1014.3
20260901170054 90 215 1.7 5.2 0.00 0.00 0.00 50 1014.4
20260901164547 90 234 0.9 6.1 0.00 0.00 0.00 51 1014.5
20260901163104 89 173 1.7 7.0 0.00 0.00 0.00 52 1014.6
20260901161548 87 139 1.7 6.1 0.00 0.00 0.00 56 1014.7
20260901160039 87 87 1.7 5.2 0.00 0.00 0.00 58 1014.7
20260901154532 86 182 0.9 2.6 0.00 0.00 0.00 62 1014.7
20260901153030 85 101 1.7 4.3 0.00 0.00 0.00 66 1014.6
20260901151526 83 317 0.9 5.2 0.00 0.00 0.00 68 1014.8
20260901150022 82 121 1.7 4.3 0.00 0.00 0.00 71 1014.7
20260901144520 82 223 1.7 4.3 0.00 0.00 0.00 73 1014.7
20260901143020 80 68 0.0 2.6 0.00 0.00 0.00 76 1014.7
20260901141530 79 274 0.0 1.7 0.00 0.00 0.00 81 1014.8
20260901140021 76 66 0.0 0.0 0.00 0.00 0.00 87 1014.8
20260901134516 74 75 0.0 0.0 0.00 0.00 0.00 88 1014.7
20260901133018 72 75 0.0 0.0 0.00 0.00 0.00 90 1014.6
20260901131518 71 75 0.0 0.0 0.00 0.00 0.00 90 1014.6
20260901130014 70 75 0.0 0.0 0.00 0.00 0.00 91 1014.5
20260901124512 69 75 0.0 0.0 0.00 0.00 0.00 91 1014.4
20260901123021 69 75 0.0 0.0 0.00 0.00 0.00 90 1014.3
20260901121514 70 75 0.0 0.0 0.00 0.00 0.00 89 1014.2
20260901120007 70 75 0.0 0.0 0.00 0.00 0.00 89 1014.2
20260901114505 71 75 0.0 0.0 0.00 0.00 0.00 88 1014.3
20260901113003 71 75 0.0 0.0 0.00 0.00 0.00 87 1014.2
20260901111501 72 75 0.0 0.0 0.00 0.00 0.00 88 1014.1
20260901110100 73 75 0.0 0.0 0.00 0.00 0.00 90 1013.9
20260901104602 72 75 0.0 0.0 0.00 0.00 0.00 86 1013.9
20260901103101 72 75 0.0 0.0 0.00 0.00 0.00 86 1014.0
20260901101607 72 75 0.0 0.0 0.00 0.00 0.00 85 1014.1
20260901100106 73 75 0.0 0.0 0.00 0.00 0.00 84 1014.0
20260901094554 73 94 0.0 0.0 0.00 0.00 0.00 83 1014.0
20260901093051 75 94 0.0 0.0 0.00 0.00 0.00 82 1014.1
20260901091550 74 71 0.0 0.9 0.00 0.00 0.00 81 1014.3
20260901090046 75 92 0.0 0.9 0.00 0.00 0.00 79 1014.2
20260901084552 75 109 0.0 1.7 0.00 0.00 0.00 78 1014.2
20260901083044 76 89 0.9 1.7 0.00 0.00 0.00 77 1014.1
20260901081543 76 83 0.0 2.6 0.00 0.00 0.00 76 1014.1
20260901080050 76 78 0.0 0.9 0.00 0.00 0.00 74 1014.1
20260901074537 77 78 0.0 2.6 0.00 0.00 0.00 73 1014.0
20260901073045 77 52 1.7 4.3 0.00 0.00 0.00 72 1014.0
20260901071533 78 109 1.7 3.5 0.00 0.00 0.00 70 1014.0
20260901070030 78 80 1.7 3.5 0.00 0.00 0.00 69 1013.9